This demonstration page uses our WeatherBlox Daily Observations layout. Learn more.

Left ArrowRight Arrow

30.21309, -93.2044

Hourly Observations for November 21, 2022

Temp ( °F °C ) Dew Point ( °F °C ) Humidity (%) Winds ( mph kmh ) Pressure ( in mb ) Visibility ( mi km ) Precip ( " mm )
12:15 am 00:15 Partly Cloudy 42 5.8 31 -0.3 65 65 NNE 8 13 30.38 1029 10 16 0.00 0.00
12:35 am 00:35 Partly Cloudy 43 6 31 -0.6 63 63 NNE 8 13 30.38 1029 10 16 0.00 0.00
12:55 am 00:55 Mostly Cloudy 43 6.1 31 -0.8 61 61 NNE 9 15 30.38 1029 10 16 0.00 0.00
1:15 am 01:15 Cloudy 43 6.2 30 -0.9 60 60 NE 9 15 30.38 1029 10 16 0.00 0.00
1:35 am 01:35 Cloudy 43 6.2 30 -1 60 60 NE 8 13 30.38 1029 10 16 0.00 0.00
1:55 am 01:55 Cloudy 44 6.4 30 -1.1 59 59 NE 7 11 30.39 1029 10 16 0.00 0.00
2:15 am 02:15 Cloudy 44 6.5 30 -1.2 58 58 ENE 9 15 30.37 1028 10 16 0.00 0.00
2:35 am 02:35 Cloudy 43 6.3 31 -0.8 60 60 ENE 8 13 30.38 1029 10 16 0.00 0.00
2:55 am 02:55 Cloudy with Light Rain 42 5.8 32 0.1 67 67 NNE 7 11 30.38 1029 10 16 0.00 0.00
3:15 am 03:15 Cloudy 42 5.6 32 0.2 68 68 NE 6 9 30.38 1029 10 16 0.00 0.00
3:35 am 03:35 Cloudy with Light Rain 42 5.5 33 0.4 70 70 NE 5 7 30.39 1029 10 16 0.00 0.00
3:55 am 03:55 Cloudy 42 5.7 33 0.6 70 70 ENE 7 11 30.37 1028 10 16 0.00 0.00
4:15 am 04:15 Cloudy with Light Rain 42 5.7 33 0.4 69 69 ENE 6 9 30.38 1029 10 16 0.00 0.00
4:35 am 04:35 Cloudy 42 5.4 34 1.1 74 74 NE 6 9 30.38 1029 10 16 0.00 0.00
4:55 am 04:55 Cloudy 41 5.2 34 1.1 75 75 NE 6 9 30.37 1028 10 16 0.00 0.00
5:15 am 05:15 Cloudy with Light Rain 42 5.4 34 1.2 74 74 ENE 7 11 30.37 1028 10 16 0.00 0.00
5:35 am 05:35 Cloudy 42 5.6 34 1.2 73 73 NE 7 11 30.37 1028 10 16 0.00 0.00
6:00 am 06:00 Mostly Cloudy 43 6 34 1 70 70 NE 8 13 30.37 1028 10 16 0.00 0.00
6:45 am 06:45 Mostly Cloudy 43 6 34 1 70 70 ENE 8 13 30.36 1028 10 16 0.00 0.00
7:55 am 07:55 Partly Cloudy 43 6 36 2 75 75 NE 7 11 30.37 1028 10 16 0.00 0.00
8:52 am 08:52 Mostly Cloudy 46 8 34 1 61 61 ENE 12 19 30.41 1030 10 16 0.00 0.00
9:47 am 09:47 Mostly Cloudy 48 9 34 1 57 57 ENE 12 19 30.40 1029 10 16 0.00 0.00
10:53 am 10:53 Mostly Cloudy 48 9 34 1 57 57 NNE 6 9 30.41 1030 10 16 0.00 0.00
11:45 am 11:45 Mostly Cloudy 46 8 37 3 71 71 NNE 6 9 30.39 1029 10 16 0.00 0.00
12:55 pm 12:55 Cloudy 46 8 39 4 76 76 NNE 8 13 30.36 1028 10 16 0.00 0.00
1:53 pm 13:53 Cloudy 46 8 41 5 81 81 N 6 9 30.35 1028 10 16 0.00 0.00
2:55 pm 14:55 Mostly Cloudy 46 8 43 6 87 87 NNE 7 11 30.32 1027 10 16 0.00 0.00
3:53 pm 15:53 Cloudy 48 9 43 6 81 81 N 6 9 30.34 1027 10 16 0.00 0.00
4:54 pm 16:54 Mostly Cloudy 48 9 43 6 81 81 N 5 7 30.35 1028 10 16 0.00 0.00
5:54 pm 17:54 Mostly Cloudy 46 8 43 6 87 87 N 6 9 30.35 1028 10 16 0.00 0.00
6:52 pm 18:52 Partly Cloudy 46 8 41 5 81 81 N 6 9 30.36 1028 10 16 0.00 0.00
7:55 pm 19:55 Mostly Cloudy 46 8 41 5 81 81 N 5 7 30.37 1028 10 16 0.00 0.00
8:55 pm 20:55 Partly Cloudy 46 8 39 4 76 76 N 6 9 30.38 1029 10 16 0.00 0.00
9:54 pm 21:54 Partly Cloudy 46 8 39 4 76 76 NE 3 6 30.37 1028 10 16 0.00 0.00
10:15 pm 22:15 Cloudy 46 7.8 40 4.6 80 80 NNE 5 7 30.37 1028 10 16 0.00 0.00
10:35 pm 22:35 Cloudy 46 7.9 40 4.6 80 80 NNE 6 9 30.37 1028 10 16 0.00 0.00
10:55 pm 22:55 Cloudy 47 8.1 40 4.4 77 77 NNE 5 7 30.37 1028 10 16 0.00 0.00
11:15 pm 23:15 Cloudy 47 8.1 40 4.4 77 77 NE 7 11 30.36 1028 10 16 0.00 0.00
11:35 pm 23:35 Cloudy 47 8.3 40 4.2 75 75 NNE 6 9 30.36 1028 10 16 0.00 0.00
11:55 pm 23:55 Cloudy 47 8.3 39 4.1 75 75 NE 8 13 30.34 1027 10 16 0.00 0.00

Powered by AerisWeather